[[{"header":{"parameterUnit":"m.s-1","parameterCategory":1,"la1":30.2991,"la2":30.254,"lo1":-89.0895,"lo2":-89.0444,"dy":0.0017,"dx":0.0017,"nx":28,"ny":28,"refTime":"2023-09-09T21:00:00:Z","depth":0,"parameterNumber":2,"parameterNumberName":"U-component_of_WINDS"},"data":[0,0,0,0,0,0,0,0,0,0,0,0,0,0,0,0,0,0,0,0,0,0,0,0,0,0,0,0,0,0,0,0,0,0,0,0,0,0,0,0,0,0,0,0,0,0,0,0,0,0,0,0,0,0,0,0,0,0,-0.4342,-0.4341,0,-0.4319,-0.4318,-0.4318,-0.4301,-0.4301,-0.4301,-0.43,-0.4275,-0.4274,-0.4274,0,0,0,0,0,0,0,0,0,0,0,0,0,-0.437,-0.4369,-0.4342,-0.4341,-0.4341,-0.4319,-0.4318,-0.4318,-0.4301,-0.4301,-0.43,-0.43,-0.4275,-0.4274,-0.4274,0,0,0,0,0,0,0,0,0,0,0,0,0,-0.4353,-0.4369,-0.4342,-0.433,-0.4329,-0.4319,-0.4318,-0.4318,-0.4301,-0.4301,-0.43,-0.43,-0.4275,-0.4274,-0.4274,-0.4273,0,0,-0.4271,-0.4271,0,0,0,0,0,0,0,0,-0.4354,-0.4352,-0.4332,-0.4331,-0.4329,-0.4312,-0.4319,-0.4303,-0.4301,-0.4311,-0.43,-0.43,-0.4287,-0.4286,-0.4282,-0.4272,-0.4271,-0.4271,-0.4271,-0.427,-0.427,0,0,0,0,0,0,0,-0.4355,-0.4353,-0.4332,-0.4332,-0.433,-0.4325,-0.4323,-0.4316,-0.4301,-0.431,-0.4309,-0.4307,-0.4287,-0.4283,-0.4281,-0.427,-0.4271,-0.427,-0.427,-0.427,-0.426,-0.426,0,0,0,0,0,0,-0.4359,-0.4354,-0.4333,-0.4332,-0.4341,-0.4325,-0.4322,-0.4318,-0.4301,-0.4298,-0.4307,-0.4306,-0.4284,-0.4282,-0.428,-0.4279,-0.427,-0.427,-0.4269,-0.4259,-0.426,-0.426,0,0,0,0,0,0,-0.4359,-0.4357,-0.4334,-0.4343,-0.4339,-0.4325,-0.432,-0.4318,-0.4314,-0.4298,-0.4295,-0.4306,-0.4284,-0.4281,-0.4275,-0.4278,-0.4269,-0.4268,-0.4259,-0.4259,-0.426,-0.4276,0,0,0,0,0,0,-0.436,-0.4357,-0.4357,-0.4343,-0.4339,-0.433,-0.432,-0.4317,-0.4312,-0.4311,-0.4296,-0.4294,-0.4283,-0.4277,-0.4274,-0.4276,-0.4268,-0.4259,-0.4259,-0.426,-0.4275,-0.4277,-0.4278,0,0,0,0,0,-0.4361,-0.4362,-0.4357,-0.4355,-0.4339,-0.433,-0.4328,-0.4317,-0.4313,-0.4312,-0.4303,-0.4294,-0.4278,-0.4276,-0.4274,-0.4275,-0.4259,-0.4259,-0.426,-0.4274,-0.4276,-0.4278,0,0,0,0,0,0,-0.4376,-0.436,-0.4354,-0.4351,-0.4342,-0.4328,-0.4327,-0.4319,-0.4311,-0.431,-0.4296,-0.4293,-0.4289,-0.4281,-0.428,-0.4274,-0.4267,-0.4267,-0.4279,-0.4281,-0.4283,-0.4285,-0.4267,0,0,0,0,0,-0.4379,-0.4374,-0.436,-0.4358,-0.4354,-0.4341,-0.4337,-0.433,-0.432,-0.4316,-0.4306,-0.4296,-0.4289,-0.4284,-0.4277,-0.4274,-0.4271,-0.4274,-0.4275,-0.4277,-0.4277,-0.4275,-0.4277,-0.4261,-0.4261,-0.4261,0,0,-0.4385,-0.4376,-0.4373,-0.4361,-0.4354,-0.4349,-0.4338,-0.4333,-0.4329,-0.4315,-0.4309,-0.4301,-0.429,-0.4286,-0.4283,-0.4279,-0.428,-0.4277,-0.4278,-0.4278,-0.4276,-0.4278,-0.4279,-0.4262,-0.4262,-0.4262,0,0,-0.4394,-0.4386,-0.4384,-0.4377,-0.4366,-0.4357,-0.4357,-0.4343,-0.4338,-0.4332,-0.4321,-0.4316,-0.4304,-0.4296,-0.4291,-0.4297,-0.4289,-0.4295,-0.4303,-0.4302,-0.4303,-0.4304,-0.4307,-0.4308,-0.4295,-0.4295,-0.4295,0,-0.4403,-0.4395,-0.4384,-0.438,-0.4375,-0.4362,-0.436,-0.4353,-0.434,-0.4337,-0.4333,-0.4318,-0.4309,-0.4303,-0.4305,-0.43,-0.43,-0.4297,-0.4304,-0.4305,-0.4305,-0.4308,-0.4309,-0.4296,-0.4296,-0.4296,-0.4296,0,-0.4407,-0.4402,-0.4401,-0.439,-0.4385,-0.4382,-0.437,-0.4366,-0.4358,-0.435,-0.4344,-0.4334,-0.4324,-0.4322,-0.4314,-0.4315,-0.4313,-0.4307,-0.4299,-0.4308,-0.431,-0.4311,-0.4297,-0.4297,-0.4297,-0.4296,0,0,-0.4424,-0.4407,-0.4407,-0.4402,-0.4389,-0.4385,-0.4381,-0.4372,-0.437,-0.4361,-0.4358,-0.4348,-0.4342,-0.4336,-0.4327,-0.4326,-0.4333,-0.432,-0.4319,-0.4323,-0.4333,-0.4339,-0.434,-0.4327,-0.4327,-0.4327,-0.4335,0,-0.4431,-0.4425,-0.4414,-0.4411,-0.4406,-0.4394,-0.4391,-0.4383,-0.4375,-0.437,-0.4361,-0.4355,-0.4347,-0.4343,-0.4342,-0.4332,-0.4335,-0.4331,-0.4324,-0.4324,-0.4328,-0.4341,-0.4347,-0.4354,-0.4335,-0.4336,-0.4336,0,-0.4438,-0.4431,-0.4428,-0.4416,-0.4414,-0.4411,-0.4403,-0.4398,-0.4388,-0.4383,-0.4376,-0.4367,-0.4362,-0.4356,-0.4349,-0.4347,-0.4344,-0.4338,-0.4338,-0.4338,-0.4331,-0.4342,-0.4356,-0.4358,-0.4337,-0.4337,-0.4337,0,-0.4452,-0.4442,-0.4439,-0.4435,-0.442,-0.4419,-0.4413,-0.4403,-0.4399,-0.4391,-0.4388,-0.438,-0.4375,-0.4369,-0.4358,-0.4354,-0.4353,-0.4345,-0.4348,-0.4349,-0.4349,-0.4349,-0.4364,-0.4345,-0.4345,-0.4345,-0.4345,0,-0.4462,-0.446,-0.4445,-0.4443,-0.4441,-0.4429,-0.4427,-0.442,-0.4411,-0.4408,-0.4396,-0.4393,-0.4378,-0.4373,-0.4364,-0.4361,-0.4358,-0.4354,-0.4352,-0.4355,-0.4356,-0.4353,-0.4352,-0.4346,-0.4346,-0.4346,-0.4346,0,-0.4477,-0.4467,-0.4463,-0.445,-0.4447,-0.4446,-0.4435,-0.4432,-0.4424,-0.4419,-0.4418,-0.4405,-0.4398,-0.4386,-0.4376,-0.437,-0.4369,-0.4364,-0.4372,-0.4371,-0.4375,-0.4375,-0.4389,-0.4391,-0.4371,-0.4371,-0.4371,0,-0.4484,-0.4483,-0.447,-0.4467,-0.4462,-0.4457,-0.4453,-0.4441,-0.4437,-0.4426,-0.4425,-0.4418,-0.4411,-0.4402,-0.4391,-0.4383,-0.4379,-0.4385,-0.4378,-0.4382,-0.438,-0.4381,-0.4381,-0.4386,-0.4387,-0.4387,-0.4387,0,-0.4497,-0.4493,-0.4487,-0.448,-0.4476,-0.4469,-0.4463,-0.4461,-0.4447,-0.4443,-0.4437,-0.4432,-0.4422,-0.4415,-0.4406,-0.4399,-0.4391,-0.4389,-0.439,-0.4394,-0.4399,-0.4397,-0.4377,-0.4389,-0.4389,-0.4389,-0.4388,-0.4388,-0.4509,-0.4508,-0.4499,-0.4493,-0.4487,-0.4481,-0.4479,-0.447,-0.4465,-0.4457,-0.445,-0.4444,-0.4435,-0.4422,-0.4416,-0.4411,-0.4407,-0.4408,-0.4408,-0.4408,-0.441,-0.4399,-0.4409,-0.4409,-0.4409,-0.4409,-0.4409,0,-0.4523,-0.4517,-0.4512,-0.4503,-0.4499,-0.4492,-0.4484,-0.4481,-0.4476,-0.4468,-0.4463,-0.4456,-0.4449,-0.4438,-0.443,-0.4429,-0.4425,-0.4427,-0.4428,-0.4426,-0.4414,-0.4414,-0.4431,-0.4431,-0.4431,-0.4431,-0.4431,-0.4431,-0.4529,-0.4527,-0.4521,-0.4515,-0.4509,-0.4504,-0.45,-0.4495,-0.4489,-0.4482,-0.4476,-0.4469,-0.446,-0.4452,-0.4446,-0.4443,-0.4441,-0.4445,-0.444,-0.4429,-0.4427,-0.4425,-0.4426,-0.4444,-0.4444,-0.4453,-0.4454,-0.4454]},{"header":{"parameterUnit":"m.s-1","parameterCategory":1,"la1":30.2991,"la2":30.254,"lo1":-89.0895,"lo2":-89.0444,"dy":0.0017,"dx":0.0017,"nx":28,"ny":28,"refTime":"2023-09-09T21:00:00:Z","depth":0,"parameterNumber":3,"parameterNumberName":"V-component_of_WINDS"},"data":[0,0,0,0,0,0,0,0,0,0,0,0,0,0,0,0,0,0,0,0,0,0,0,0,0,0,0,0,0,0,0,0,0,0,0,0,0,0,0,0,0,0,0,0,0,0,0,0,0,0,0,0,0,0,0,0,0,0,0.6399,0.6399,0,0.6368,0.6368,0.6367,0.6358,0.6358,0.6359,0.6359,0.6326,0.6325,0.6324,0,0,0,0,0,0,0,0,0,0,0,0,0,0.645,0.6449,0.6399,0.6399,0.6398,0.6368,0.6368,0.6367,0.6358,0.6358,0.6359,0.6359,0.6327,0.6325,0.6324,0,0,0,0,0,0,0,0,0,0,0,0,0,0.6424,0.6448,0.6399,0.639,0.6389,0.6368,0.6368,0.6367,0.6358,0.6358,0.6359,0.6359,0.6327,0.6326,0.6324,0.631,0,0,0.6319,0.6319,0,0,0,0,0,0,0,0,0.6426,0.6422,0.6392,0.6391,0.6389,0.6367,0.6374,0.6348,0.6358,0.637,0.6359,0.6359,0.634,0.6337,0.6331,0.6308,0.6307,0.6319,0.6318,0.6318,0.6317,0,0,0,0,0,0,0,0.6427,0.6423,0.6387,0.6391,0.639,0.6387,0.6384,0.6369,0.6354,0.6369,0.6368,0.6365,0.6339,0.6332,0.633,0.6306,0.6319,0.6318,0.6317,0.6316,0.627,0.627,0,0,0,0,0,0,0.6431,0.6425,0.6388,0.6386,0.6408,0.6386,0.6383,0.6374,0.6354,0.6351,0.6364,0.6364,0.6335,0.6332,0.6329,0.631,0.6318,0.6316,0.6315,0.6271,0.627,0.627,0,0,0,0,0,0,0.6432,0.6427,0.6389,0.6405,0.64,0.6385,0.6376,0.6373,0.6367,0.6351,0.6348,0.636,0.6335,0.6331,0.6315,0.6309,0.6316,0.6314,0.6271,0.627,0.627,0.6274,0,0,0,0,0,0,0.6433,0.6428,0.6422,0.6405,0.6399,0.6375,0.6375,0.6373,0.6364,0.6364,0.6346,0.6343,0.6335,0.6317,0.6313,0.6307,0.6313,0.6271,0.6271,0.627,0.6274,0.6274,0.6273,0,0,0,0,0,0.6435,0.6424,0.6422,0.6418,0.6392,0.6375,0.6372,0.6362,0.6364,0.6358,0.6348,0.6344,0.6311,0.6315,0.6311,0.6305,0.6272,0.6271,0.627,0.6274,0.6274,0.6273,0,0,0,0,0,0,0.6441,0.6422,0.6419,0.6403,0.6391,0.6374,0.6366,0.6362,0.6349,0.6349,0.6338,0.6334,0.6318,0.631,0.6315,0.629,0.6291,0.6289,0.6296,0.6295,0.6294,0.6297,0.6312,0,0,0,0,0,0.644,0.6428,0.6412,0.6399,0.6393,0.6381,0.6373,0.6367,0.6354,0.6349,0.6337,0.6324,0.6311,0.6303,0.629,0.6273,0.6269,0.6267,0.6266,0.6266,0.6264,0.6255,0.6254,0.6268,0.6268,0.6268,0,0,0.6439,0.6427,0.642,0.64,0.639,0.6378,0.6376,0.6363,0.6354,0.6347,0.633,0.6322,0.6307,0.629,0.6283,0.6283,0.626,0.6265,0.6265,0.6264,0.6254,0.6253,0.6252,0.6267,0.6267,0.6267,0,0,0.643,0.642,0.6408,0.6398,0.6383,0.6375,0.6372,0.6355,0.6349,0.6333,0.6327,0.6316,0.6293,0.6283,0.6275,0.6263,0.6259,0.6259,0.6256,0.6247,0.6246,0.6245,0.624,0.6239,0.6257,0.6257,0.6257,0,0.643,0.6411,0.6402,0.6389,0.6381,0.6374,0.6362,0.6352,0.6334,0.6328,0.6329,0.63,0.629,0.6271,0.6268,0.6262,0.6258,0.626,0.6247,0.6246,0.6245,0.624,0.6239,0.6258,0.6258,0.6258,0.6258,0,0.6412,0.6399,0.6391,0.6374,0.6364,0.6352,0.6341,0.6332,0.6327,0.6319,0.6303,0.629,0.6274,0.6269,0.6264,0.625,0.625,0.6249,0.625,0.6244,0.6239,0.6237,0.6258,0.6258,0.6258,0.6258,0,0,0.6405,0.6383,0.638,0.6372,0.6356,0.6345,0.6333,0.6318,0.6311,0.6298,0.6287,0.6269,0.6267,0.6258,0.6252,0.6244,0.6235,0.6244,0.6243,0.6242,0.6218,0.6219,0.6218,0.6233,0.6232,0.6232,0.622,0,0.6393,0.6371,0.6362,0.6344,0.6332,0.6326,0.6315,0.6303,0.6295,0.6284,0.6275,0.6262,0.6261,0.6256,0.6248,0.6238,0.623,0.6239,0.6222,0.6221,0.6226,0.6215,0.6216,0.6205,0.6218,0.6218,0.6217,0,0.6377,0.6365,0.6345,0.633,0.6325,0.6315,0.6301,0.629,0.6277,0.6272,0.6262,0.6256,0.6242,0.6245,0.6226,0.6232,0.6225,0.6219,0.6218,0.6216,0.6219,0.6212,0.6201,0.62,0.6215,0.6215,0.6215,0,0.6374,0.6352,0.6338,0.6331,0.6313,0.6307,0.6299,0.6286,0.6278,0.6265,0.626,0.6246,0.6238,0.6227,0.6218,0.6221,0.62,0.6202,0.6195,0.6195,0.6191,0.6191,0.6178,0.6187,0.6187,0.6187,0.6187,0,0.6362,0.635,0.6336,0.6327,0.6314,0.6304,0.6291,0.6283,0.6272,0.6261,0.6255,0.6245,0.6233,0.6222,0.6214,0.62,0.6197,0.6192,0.619,0.6192,0.6193,0.6187,0.6187,0.6186,0.6186,0.6186,0.6186,0,0.6355,0.6346,0.633,0.6314,0.631,0.6301,0.6288,0.6279,0.6271,0.6257,0.6254,0.6241,0.6227,0.6217,0.6199,0.6194,0.6179,0.6177,0.6183,0.6182,0.6176,0.6177,0.6159,0.6156,0.6167,0.6167,0.6167,0,0.6348,0.6339,0.6323,0.6315,0.6308,0.6296,0.6287,0.6278,0.6269,0.6254,0.6247,0.6233,0.6221,0.6199,0.6188,0.6175,0.6172,0.6167,0.617,0.6173,0.6172,0.6173,0.6172,0.6166,0.6166,0.6166,0.6166,0,0.6336,0.6332,0.632,0.6307,0.6297,0.6286,0.6275,0.6269,0.6258,0.6249,0.6235,0.6226,0.6208,0.6194,0.6179,0.6171,0.6166,0.6165,0.6163,0.6165,0.6169,0.6167,0.6182,0.6166,0.6166,0.6166,0.6166,0.6166,0.6329,0.6321,0.6308,0.6295,0.6286,0.6276,0.6267,0.6258,0.6247,0.6231,0.6226,0.6212,0.6199,0.6179,0.6171,0.616,0.616,0.6156,0.6155,0.6155,0.6155,0.6171,0.6157,0.6157,0.6157,0.6157,0.6157,0,0.6317,0.6309,0.6297,0.6282,0.6272,0.6269,0.6257,0.6249,0.6236,0.6225,0.6214,0.6198,0.6184,0.6172,0.6158,0.6151,0.6149,0.6148,0.6148,0.6147,0.6156,0.6159,0.615,0.615,0.615,0.615,0.615,0.615,0.6309,0.6295,0.6289,0.6271,0.6262,0.6248,0.6242,0.6232,0.6223,0.6206,0.6195,0.6187,0.6176,0.6161,0.6149,0.6146,0.6141,0.614,0.6137,0.6145,0.6146,0.6147,0.615,0.6139,0.6139,0.6128,0.6128,0.6128]}]]